Location: ??????
(55.7522°N, 37.6156°E)
Time: 17:55:22
(UTC+00:00)

Cosmos 2297 Rocket - Pass Details

Date: 14 June 2025
Orbit: 838 x 843 km, 71.0° (Epoch: 12 July)

Event Time Altitude Azimuth Distance (km) Brightness Sun altitude
Rises 19:27:26 0° 226° (SW) 3,392 5.2 -6.8°
Reaches altitude 10° 19:29:55 10° 230° (SW) 2,461 4.5 -6.9°
Maximum altitude 19:35:30 60° 311° (NW) 963 2.9 -7.3°
Drops below altitude 10° 19:41:08 10° 31° (NNE) 2,475 5.1 -7.6°
Sets 19:43:38 0° 35° (NE) 3,413 5.8 -7.8°
